Location: Unspecified
(49.8670°N, 0.0000°E)
Time: 03:00:12
(UTC+00:00)

Courier 1B - Pass Details

Date: 20 June 2019
Orbit: 963 x 1209 km, 28.3° (Epoch: 15 July)

Event Time Altitude Azimuth Distance (km) Brightness Sun altitude
Rises 22:08:13 0° 238° (WSW) 4,023 10.7 -12.5°
Reaches altitude 10° 22:13:12 10° 211° (SSW) 3,103 9.8 -12.8°
Maximum altitude 22:15:57 12° 190° (S) 2,953 9.5 -13.0°
Enters shadow 22:16:39 12° 184° (S) 2,967 9.5 -13.1°
